Location: Unspecified
(0.0000°N, 0.0000°E)
Time: 01:12:47
(UTC+00:00)

Envisat - Pass Details

Date: 28 June 2022
Orbit: 764 x 765 km, 98.2° (Epoch: 28 June)

Event Time Altitude Azimuth Distance (km) Brightness Sun altitude
Rises 04:29:11 0° 1° (N) 3,212 6.6 -21.5°
Reaches altitude 10° 04:31:33 10° 355° (N) 2,289 5.7 -21.0°
Maximum altitude 04:36:23 47° 282° (WNW) 1,006 3.2 -19.9°
Enters shadow 04:37:40 38° 242° (WSW) 1,148 3.4 -19.6°
